Location: Perryvale
(54.4667°N, 113.3833°W)
Time: 10:58:31
(UTC+00:00)

Vanguard 3 - Pass Details

Date: 21 May 2024
Orbit: 509 x 3231 km, 33.3° (Epoch: 16 June)

Event Time Altitude Azimuth Distance (km) Brightness Sun altitude
Rises 08:19:57 0° 265° (W) 6,148 11.5 -14.5°
Reaches altitude 10° 08:25:22 10° 251° (WSW) 5,529 11.1 -14.3°
Maximum altitude 08:36:05 20° 212° (SSW) 5,200 10.6 -13.9°
Drops below altitude 10° 08:47:57 10° 175° (S) 6,140 11.0 -13.4°
Sets 08:54:37 0° 161° (SSE) 7,017 11.5 -13.1°
